[[{"header":{"parameterUnit":"m.s-1","parameterCategory":1,"la1":30.2991,"la2":30.254,"lo1":-89.0895,"lo2":-89.0444,"dy":0.0017,"dx":0.0017,"nx":28,"ny":28,"refTime":"2023-10-24T21:00:00:Z","depth":0,"parameterNumber":2,"parameterNumberName":"U-component_of_WINDS"},"data":[0,0,0,0,0,0,0,0,0,0,0,0,0,0,0,0,0,0,0,0,0,0,0,0,0,0,0,0,0,0,0,0,0,0,0,0,0,0,0,0,0,0,0,0,0,0,0,0,0,0,0,0,0,0,0,0,0,0,-6.4153,-6.4154,0,-6.4282,-6.4283,-6.4285,-6.4219,-6.4215,-6.4212,-6.4209,-6.4338,-6.4344,-6.4351,0,0,0,0,0,0,0,0,0,0,0,0,0,-6.3848,-6.3854,-6.4153,-6.4154,-6.4156,-6.4282,-6.4283,-6.4285,-6.4219,-6.4215,-6.4211,-6.4207,-6.4336,-6.4344,-6.4352,0,0,0,0,0,0,0,0,0,0,0,0,0,-6.3979,-6.3856,-6.4152,-6.4138,-6.4138,-6.4281,-6.4284,-6.4286,-6.422,-6.4215,-6.421,-6.4205,-6.4333,-6.4343,-6.4353,-6.4516,0,0,-6.4383,-6.4387,0,0,0,0,0,0,0,0,-6.3972,-6.399,-6.4139,-6.4139,-6.414,-6.4229,-6.4224,-6.4363,-6.4221,-6.4189,-6.4208,-6.4203,-6.4306,-6.4318,-6.4353,-6.4522,-6.4528,-6.4384,-6.439,-6.4394,-6.4397,0,0,0,0,0,0,0,-6.3963,-6.3985,-6.4204,-6.4141,-6.4142,-6.4125,-6.4138,-6.425,-6.4274,-6.4191,-6.4187,-6.4203,-6.4305,-6.4344,-6.4355,-6.453,-6.4384,-6.4392,-6.4399,-6.4403,-6.4842,-6.4847,0,0,0,0,0,0,-6.3955,-6.3977,-6.42,-6.4208,-6.4042,-6.4135,-6.4149,-6.4205,-6.4273,-6.4278,-6.4207,-6.42,-6.4329,-6.4344,-6.436,-6.4556,-6.4394,-6.4403,-6.4409,-6.4836,-6.4843,-6.4849,0,0,0,0,0,0,-6.3949,-6.3975,-6.4194,-6.4092,-6.4118,-6.4146,-6.4209,-6.4211,-6.4249,-6.4285,-6.4289,-6.4242,-6.4326,-6.4346,-6.4478,-6.4559,-6.4408,-6.4417,-6.4829,-6.4838,-6.4846,-6.4949,0,0,0,0,0,0,-6.394,-6.3973,-6.4035,-6.4093,-6.4124,-6.4311,-6.4214,-6.4217,-6.4267,-6.4258,-6.4319,-6.4324,-6.4323,-6.4464,-6.4488,-6.457,-6.4425,-6.4822,-6.4833,-6.4844,-6.4938,-6.496,-6.4978,0,0,0,0,0,-6.3929,-6.4058,-6.4039,-6.4066,-6.4202,-6.4316,-6.4333,-6.433,-6.4274,-6.4336,-6.436,-6.4322,-6.4548,-6.4478,-6.4505,-6.4591,-6.4817,-6.483,-6.4843,-6.4929,-6.4956,-6.4978,0,0,0,0,0,0,-6.4007,-6.4065,-6.4044,-6.4196,-6.4252,-6.4304,-6.4383,-6.4358,-6.443,-6.4418,-6.4411,-6.4426,-6.4564,-6.4591,-6.4513,-6.4754,-6.4673,-6.4692,-6.473,-6.4756,-6.4775,-6.4764,-6.4433,0,0,0,0,0,-6.4042,-6.413,-6.4176,-6.4306,-6.4335,-6.4355,-6.4404,-6.4398,-6.4454,-6.4477,-6.451,-6.4567,-6.465,-6.4705,-6.4784,-6.4944,-6.4956,-6.5017,-6.5037,-6.5053,-6.5068,-6.5155,-6.5183,-6.4892,-6.4891,-6.4891,0,0,-6.4115,-6.4158,-6.4213,-6.4323,-6.4365,-6.4456,-6.4375,-6.4474,-6.4541,-6.4492,-6.4619,-6.4646,-6.4709,-6.4856,-6.4922,-6.4883,-6.5152,-6.5069,-6.5082,-6.5088,-6.5171,-6.5199,-6.5223,-6.49,-6.4899,-6.4897,0,0,-6.4292,-6.4335,-6.4447,-6.4492,-6.4558,-6.4571,-6.4599,-6.4657,-6.4673,-6.4802,-6.4767,-6.4848,-6.4992,-6.5038,-6.508,-6.5281,-6.5249,-6.5307,-6.541,-6.5496,-6.5518,-6.5539,-6.5609,-6.5635,-6.5323,-6.5324,-6.5324,0,-6.4373,-6.4509,-6.4508,-6.4611,-6.466,-6.4623,-6.4737,-6.478,-6.4869,-6.4903,-6.4859,-6.5041,-6.508,-6.5238,-6.5287,-6.5323,-6.5354,-6.5298,-6.5516,-6.5536,-6.5555,-6.5622,-6.5649,-6.533,-6.5329,-6.5329,-6.5328,0,-6.4606,-6.4701,-6.4784,-6.4872,-6.4931,-6.5039,-6.5054,-6.5114,-6.5105,-6.5123,-6.5255,-6.5302,-6.539,-6.5428,-6.5418,-6.5586,-6.5559,-6.5516,-6.5434,-6.5589,-6.5652,-6.5678,-6.5339,-6.5337,-6.5335,-6.5333,0,0,-6.4831,-6.492,-6.495,-6.499,-6.5063,-6.5136,-6.5244,-6.5332,-6.5383,-6.5447,-6.5536,-6.5662,-6.5623,-6.5671,-6.5667,-6.5743,-6.5899,-6.569,-6.5692,-6.5726,-6.6086,-6.6116,-6.6145,-6.588,-6.5885,-6.5889,-6.608,0,-6.5012,-6.52,-6.5204,-6.5376,-6.5464,-6.5433,-6.5527,-6.5581,-6.5603,-6.5681,-6.5704,-6.5792,-6.5735,-6.5764,-6.5838,-6.5864,-6.597,-6.5851,-6.5961,-6.5965,-6.5943,-6.6178,-6.621,-6.6387,-6.6105,-6.6109,-6.6112,0,-6.5247,-6.5321,-6.5502,-6.5564,-6.5601,-6.5685,-6.5767,-6.5843,-6.5905,-6.5916,-6.5973,-6.5958,-6.6068,-6.5987,-6.6138,-6.6057,-6.6104,-6.6124,-6.6131,-6.6138,-6.6045,-6.619,-6.6444,-6.647,-6.6151,-6.6148,-6.6145,0,-6.5391,-6.5536,-6.5663,-6.5699,-6.5775,-6.5835,-6.5869,-6.5927,-6.598,-6.6053,-6.6088,-6.6172,-6.6217,-6.6283,-6.6293,-6.6233,-6.6445,-6.6364,-6.6455,-6.6455,-6.6498,-6.6494,-6.6761,-6.6533,-6.6533,-6.6532,-6.6532,0,-6.5591,-6.5703,-6.5729,-6.5807,-6.5932,-6.5937,-6.606,-6.609,-6.6143,-6.6226,-6.6205,-6.6284,-6.6293,-6.6375,-6.6383,-6.6507,-6.6529,-6.654,-6.654,-6.654,-6.6538,-6.6567,-6.6554,-6.6539,-6.6538,-6.6537,-6.6535,0,-6.5771,-6.5793,-6.593,-6.5992,-6.6011,-6.61,-6.6153,-6.6228,-6.625,-6.6356,-6.6381,-6.6414,-6.6509,-6.6526,-6.6638,-6.6644,-6.6792,-6.6781,-6.6771,-6.6769,-6.6858,-6.6849,-6.715,-6.7189,-6.6939,-6.6941,-6.6943,0,-6.5895,-6.5981,-6.6054,-6.6109,-6.6147,-6.6236,-6.6291,-6.6301,-6.6359,-6.644,-6.6505,-6.6599,-6.6674,-6.6828,-6.6862,-6.6948,-6.6937,-6.7038,-6.695,-6.6948,-6.6937,-6.693,-6.6939,-6.7053,-6.7055,-6.7058,-6.7059,0,-6.6114,-6.6122,-6.6202,-6.6289,-6.6356,-6.6424,-6.6488,-6.6535,-6.6553,-6.662,-6.6719,-6.6777,-6.6894,-6.6987,-6.7074,-6.7109,-6.7088,-6.7088,-6.7113,-6.7112,-6.7101,-6.7107,-6.6814,-6.7079,-6.7077,-6.7076,-6.7075,-6.7074,-6.6268,-6.6343,-6.6407,-6.6499,-6.6549,-6.6611,-6.6685,-6.6717,-6.6799,-6.6895,-6.6896,-6.7004,-6.7067,-6.7182,-6.7224,-6.7308,-6.7276,-6.7313,-6.7322,-6.733,-6.7338,-6.7092,-6.7324,-6.7323,-6.7323,-6.7322,-6.7322,0,-6.6484,-6.6524,-6.6609,-6.6701,-6.6774,-6.6751,-6.6822,-6.6884,-6.6979,-6.704,-6.7116,-6.723,-6.7321,-6.7364,-6.7455,-6.7514,-6.7507,-6.7537,-6.7531,-6.754,-6.7362,-6.733,-6.7542,-6.7542,-6.7542,-6.7542,-6.7542,-6.7542,-6.6604,-6.673,-6.6746,-6.6898,-6.6938,-6.7043,-6.7086,-6.7143,-6.7193,-6.7321,-6.7398,-6.7426,-6.748,-6.7575,-6.7659,-6.7669,-6.7702,-6.7737,-6.7743,-6.7575,-6.7552,-6.7531,-6.7501,-6.7745,-6.7745,-6.7914,-6.7915,-6.7916]},{"header":{"parameterUnit":"m.s-1","parameterCategory":1,"la1":30.2991,"la2":30.254,"lo1":-89.0895,"lo2":-89.0444,"dy":0.0017,"dx":0.0017,"nx":28,"ny":28,"refTime":"2023-10-24T21:00:00:Z","depth":0,"parameterNumber":3,"parameterNumberName":"V-component_of_WINDS"},"data":[0,0,0,0,0,0,0,0,0,0,0,0,0,0,0,0,0,0,0,0,0,0,0,0,0,0,0,0,0,0,0,0,0,0,0,0,0,0,0,0,0,0,0,0,0,0,0,0,0,0,0,0,0,0,0,0,0,0,1.9478,1.9479,0,1.9551,1.9552,1.9553,1.958,1.9579,1.9579,1.9579,1.965,1.9652,1.9655,0,0,0,0,0,0,0,0,0,0,0,0,0,1.9359,1.9361,1.9478,1.9479,1.948,1.9551,1.9552,1.9553,1.958,1.9579,1.9579,1.9579,1.965,1.9652,1.9655,0,0,0,0,0,0,0,0,0,0,0,0,0,1.9419,1.9361,1.9478,1.9502,1.9504,1.9551,1.9552,1.9554,1.958,1.9579,1.9579,1.9579,1.9649,1.9652,1.9655,1.9682,0,0,1.9665,1.9666,0,0,0,0,0,0,0,0,1.9416,1.9423,1.9497,1.95,1.9503,1.9556,1.9537,1.9597,1.958,1.9551,1.9579,1.9578,1.9619,1.9625,1.9639,1.9686,1.9689,1.9665,1.9667,1.9668,1.9669,0,0,0,0,0,0,0,1.9411,1.942,1.9507,1.9498,1.9502,1.9508,1.9516,1.9548,1.9586,1.9553,1.9556,1.9564,1.9621,1.9636,1.9641,1.969,1.9665,1.9668,1.967,1.9671,1.9765,1.9765,0,0,0,0,0,0,1.9404,1.9417,1.9505,1.9509,1.9458,1.9511,1.952,1.9539,1.9586,1.9593,1.9564,1.9565,1.9631,1.9637,1.9644,1.968,1.9668,1.9671,1.9673,1.9764,1.9765,1.9765,0,0,0,0,0,0,1.9401,1.9411,1.9502,1.9464,1.9476,1.9513,1.9535,1.9541,1.9556,1.9594,1.9601,1.9573,1.9631,1.9639,1.9673,1.9683,1.9673,1.9676,1.9763,1.9764,1.9765,1.9752,0,0,0,0,0,0,1.9397,1.941,1.9421,1.9464,1.9478,1.953,1.9536,1.9543,1.9562,1.9564,1.9604,1.961,1.9631,1.9668,1.9676,1.9687,1.9678,1.9763,1.9764,1.9765,1.9752,1.9752,1.9753,0,0,0,0,0,1.9393,1.9413,1.9421,1.9432,1.9492,1.9531,1.9539,1.9563,1.9563,1.9574,1.9599,1.9609,1.9681,1.9672,1.9681,1.9693,1.9762,1.9763,1.9765,1.9751,1.9752,1.9753,0,0,0,0,0,0,1.9368,1.9419,1.9429,1.9463,1.9493,1.9535,1.955,1.9563,1.9592,1.9592,1.962,1.9629,1.9661,1.968,1.9669,1.9723,1.9722,1.9725,1.9709,1.971,1.971,1.9705,1.9681,0,0,0,0,0,1.9367,1.9395,1.9438,1.9464,1.9479,1.9512,1.953,1.9546,1.9577,1.959,1.9616,1.9646,1.9675,1.9693,1.9722,1.9755,1.9765,1.9768,1.9768,1.9768,1.9771,1.9791,1.9794,1.9769,1.9769,1.9769,0,0,1.9364,1.9396,1.9411,1.946,1.9485,1.9513,1.9522,1.9551,1.9572,1.9593,1.9628,1.9649,1.9684,1.9718,1.9734,1.9735,1.978,1.977,1.977,1.9772,1.9793,1.9795,1.9797,1.977,1.977,1.977,0,0,1.9374,1.9401,1.9426,1.9452,1.949,1.9513,1.9519,1.956,1.9576,1.9611,1.9629,1.9654,1.9703,1.9728,1.9747,1.9769,1.978,1.9778,1.978,1.98,1.9802,1.9804,1.9813,1.9815,1.978,1.978,1.978,0,1.9366,1.941,1.9438,1.9467,1.9488,1.9511,1.9538,1.9561,1.9606,1.962,1.962,1.9685,1.9709,1.975,1.9756,1.977,1.9779,1.9773,1.9799,1.9802,1.9804,1.9813,1.9816,1.9779,1.9779,1.9779,1.9779,0,1.9398,1.9429,1.9445,1.9491,1.9514,1.9541,1.9573,1.9593,1.9608,1.9631,1.9667,1.9698,1.9735,1.9746,1.976,1.9789,1.9789,1.9794,1.9794,1.9805,1.9814,1.9817,1.9779,1.9779,1.9779,1.9779,0,0,1.9393,1.9456,1.9461,1.9483,1.9528,1.9552,1.9581,1.9619,1.9636,1.9667,1.9692,1.9735,1.9741,1.9762,1.978,1.9797,1.9815,1.98,1.9802,1.9803,1.9851,1.9847,1.985,1.9822,1.9823,1.9824,1.9848,0,1.9409,1.9464,1.9491,1.9533,1.9562,1.9586,1.9611,1.9642,1.9664,1.9692,1.9716,1.9746,1.9751,1.9765,1.9783,1.9808,1.9825,1.9807,1.9846,1.9847,1.9837,1.9855,1.985,1.9872,1.9852,1.9852,1.9853,0,1.9435,1.9468,1.9514,1.9559,1.9572,1.9594,1.9632,1.9658,1.9694,1.9709,1.9735,1.9752,1.9784,1.9782,1.9827,1.9814,1.9832,1.9847,1.9849,1.9853,1.985,1.986,1.9879,1.9882,1.9858,1.9858,1.9857,0,1.9428,1.9484,1.9519,1.9537,1.9589,1.9605,1.9627,1.9663,1.9684,1.9717,1.9731,1.9767,1.9786,1.9813,1.984,1.9836,1.9882,1.9882,1.9896,1.9895,1.9904,1.9903,1.9926,1.9915,1.9915,1.9915,1.9914,0,1.9443,1.9471,1.9517,1.9539,1.9571,1.9602,1.9632,1.9656,1.9688,1.9715,1.9736,1.9761,1.9795,1.9823,1.9844,1.9879,1.9887,1.99,1.9906,1.9899,1.9897,1.991,1.991,1.9915,1.9915,1.9915,1.9915,0,1.944,1.9472,1.9513,1.956,1.9572,1.9594,1.9634,1.9656,1.9681,1.9714,1.9724,1.9762,1.9797,1.9827,1.9872,1.9887,1.9923,1.9929,1.9911,1.9914,1.9926,1.9925,1.9959,1.9966,1.9949,1.9949,1.9949,0,1.9448,1.947,1.952,1.9541,1.9564,1.9596,1.9619,1.9651,1.9673,1.9717,1.9734,1.9772,1.9803,1.9859,1.989,1.9925,1.9933,1.9942,1.9938,1.9931,1.9934,1.9932,1.9935,1.9942,1.9942,1.9942,1.9942,0,1.9459,1.9474,1.9507,1.9547,1.9574,1.9606,1.9638,1.9654,1.9692,1.9716,1.9754,1.9779,1.9827,1.9864,1.9904,1.9926,1.9941,1.9944,1.9949,1.9942,1.9931,1.9938,1.9913,1.9943,1.9943,1.9943,1.9943,1.9943,1.9462,1.9483,1.9523,1.956,1.9588,1.9619,1.9643,1.9671,1.9704,1.9747,1.9763,1.9802,1.9839,1.9894,1.9917,1.9947,1.9949,1.9956,1.9958,1.9959,1.9959,1.9927,1.9954,1.9954,1.9954,1.9954,1.9954,0,1.9475,1.9502,1.9536,1.9582,1.9611,1.9624,1.9662,1.9685,1.9719,1.9753,1.9785,1.9829,1.9865,1.99,1.9939,1.9957,1.9965,1.9966,1.9965,1.997,1.9955,1.9947,1.9959,1.9959,1.9959,1.9959,1.9959,1.9959,1.9485,1.9523,1.9543,1.9596,1.9623,1.9662,1.9683,1.9711,1.9739,1.9788,1.9819,1.9843,1.9877,1.9919,1.9954,1.9963,1.9976,1.9976,1.9987,1.9972,1.9971,1.997,1.9963,1.9979,1.9979,2.0001,2.0001,2.0001]}]]